CW1020 Weather Reports


time (UTC)temp
C
wind
direction
speed
KPH
gust
KPH
rain 1hr
cm
rain 24hr
cm
rain mn
cm
humidity
%
barometer
mb
20260510041503 18 0 0.0 0.0 0.00 0.00 0.00 54 1017.5
20260510041003 18 0 1.6 0.0 0.00 0.00 0.00 54 1017.4
20260510040503 18 252 3.2 4.8 0.00 0.00 0.00 54 1017.6
20260510040003 18 252 4.8 4.8 0.00 0.00 0.00 54 1017.5
20260510035503 18 259 4.8 6.4 0.00 0.00 0.00 53 1017.5
20260510035004 18 267 4.8 6.4 0.00 0.00 0.00 52 1017.4
20260510034503 19 263 4.8 6.4 0.00 0.00 0.00 52 1017.4
20260510034003 19 260 4.8 11.3 0.00 0.00 0.00 51 1017.5
20260510033503 19 252 6.4 8.0 0.00 0.00 0.00 50 1017.4
20260510033005 19 253 6.4 8.0 0.00 0.00 0.00 50 1017.4
20260510032503 20 249 8.0 8.0 0.00 0.00 0.00 49 1017.3
20260510032003 20 260 11.3 11.3 0.00 0.00 0.00 49 1017.2
20260510031503 20 269 12.9 16.1 0.00 0.00 0.00 48 1017.1
20260510031003 20 261 9.7 16.1 0.00 0.00 0.00 47 1016.9
20260510030503 20 266 9.7 11.3 0.00 0.00 0.00 47 1017.0
20260510030004 20 257 9.7 14.5 0.00 0.00 0.00 46 1016.8
20260510025504 20 268 9.7 12.9 0.00 0.00 0.00 46 1016.8
20260510024005 21 250 9.7 14.5 0.00 0.00 0.00 46 1016.8
20260510023503 21 249 4.8 12.9 0.00 0.00 0.00 47 1016.8
20260510023004 21 259 4.8 16.1 0.00 0.00 0.00 49 1016.7
20260510022503 21 262 8.0 9.7 0.00 0.00 0.00 50 1016.7
20260510022003 21 271 6.4 14.5 0.00 0.00 0.00 49 1016.7
20260510021503 21 315 6.4 12.9 0.00 0.00 0.00 48 1016.7
20260510021003 21 313 8.0 9.7 0.00 0.00 0.00 48 1016.5
20260510020503 21 290 9.7 16.1 0.00 0.00 0.00 48 1016.5
20260510020004 21 301 11.3 16.1 0.00 0.00 0.00 48 1016.5
20260510015503 21 305 12.9 16.1 0.00 0.00 0.00 48 1016.4
20260510015003 22 305 12.9 19.3 0.00 0.00 0.00 48 1016.4
20260510014504 22 311 11.3 22.5 0.00 0.00 0.00 48 1016.4
20260510014003 22 306 12.9 16.1 0.00 0.00 0.00 48 1016.4
20260510013503 22 310 12.9 17.7 0.00 0.00 0.00 48 1016.2
20260510013003 22 301 14.5 20.9 0.00 0.00 0.00 48 1016.2
20260510012504 22 299 14.5 19.3 0.00 0.00 0.00 48 1016.2
20260510012003 22 318 14.5 20.9 0.00 0.00 0.00 47 1016.2
20260510011504 22 307 14.5 22.5 0.00 0.00 0.00 47 1016.2
20260510011003 22 312 12.9 20.9 0.00 0.00 0.00 46 1016.2
20260510010503 22 312 14.5 22.5 0.00 0.00 0.00 46 1016.2
20260510010004 22 313 14.5 19.3 0.00 0.00 0.00 45 1016.2
20260510005503 22 314 14.5 25.7 0.00 0.00 0.00 45 1016.1
20260510004004 23 298 14.5 19.3 0.00 0.00 0.00 45 1016.1
20260510003503 23 316 12.9 20.9 0.00 0.00 0.00 44 1016.0
20260510003004 23 315 16.1 20.9 0.00 0.00 0.00 44 1016.1
20260510002503 23 313 19.3 22.5 0.00 0.00 0.00 43 1016.1
20260510002003 23 311 17.7 24.1 0.00 0.00 0.00 42 1016.1
20260510001504 23 319 17.7 24.1 0.00 0.00 0.00 42 1016.0
20260510001003 23 310 17.7 24.1 0.00 0.00 0.00 42 1016.1
20260510000504 23 311 17.7 27.4 0.00 0.00 0.00 42 1016.1
20260510000004 23 315 17.7 25.7 0.00 0.00 0.00 42 1016.1
20260509235503 23 315 19.3 27.4 0.00 0.00 0.00 42 1016.1
20260509235003 23 320 17.7 29.0 0.00 0.00 0.00 42 1016.1
20260509234503 23 308 17.7 27.4 0.00 0.00 0.00 42 1016.0
20260509233503 23 311 17.7 29.0 0.00 0.00 0.00 42 1016.1
20260509233004 23 311 17.7 24.1 0.00 0.00 0.00 43 1016.0
20260509232004 23 309 19.3 22.5 0.00 0.00 0.00 42 1016.0
20260509230504 23 311 17.7 29.0 0.00 0.00 0.00 42 1016.1
20260509230004 23 319 16.1 25.7 0.00 0.00 0.00 42 1016.1
20260509225503 23 319 16.1 27.4 0.00 0.00 0.00 42 1016.2
20260509225006 23 314 17.7 24.1 0.00 0.00 0.00 41 1016.1
20260509224503 23 318 17.7 29.0 0.00 0.00 0.00 43 1016.2
20260509224004 23 315 19.3 24.1 0.00 0.00 0.00 42 1016.2
20260509223004 23 314 19.3 30.6 0.00 0.00 0.00 42 1016.3
20260509222003 23 322 17.7 32.2 0.00 0.00 0.00 42 1016.3
20260509221504 23 315 17.7 25.7 0.00 0.00 0.00 42 1016.4
20260509220504 23 321 17.7 22.5 0.00 0.00 0.00 42 1016.6
20260509220004 23 317 17.7 24.1 0.00 0.00 0.00 42 1016.5
20260509215504 23 319 17.7 22.5 0.00 0.00 0.00 42 1016.7
20260509215003 23 319 19.3 32.2 0.00 0.00 0.00 42 1016.7
20260509213503 23 320 17.7 30.6 0.00 0.00 0.00 43 1016.8
20260509213004 23 320 17.7 29.0 0.00 0.00 0.00 44 1016.8
20260509212502 23 320 17.7 27.4 0.00 0.00 0.00 43 1016.9
20260509212002 23 321 17.7 30.6 0.00 0.00 0.00 43 1017.0
20260509211002 23 322 17.7 29.0 0.00 0.00 0.00 44 1016.9
20260509210502 23 321 17.7 27.4 0.00 0.00 0.00 44 1017.0
20260509210003 23 319 16.1 24.1 0.00 0.00 0.00 45 1017.0
20260509205503 23 318 16.1 20.9 0.00 0.00 0.00 44 1017.1
20260509205003 23 317 16.1 25.7 0.00 0.00 0.00 44 1017.0
20260509204502 23 323 16.1 29.0 0.00 0.00 0.00 44 1017.1
20260509204002 23 321 14.5 32.2 0.00 0.00 0.00 44 1017.1
20260509203503 23 322 12.9 25.7 0.00 0.00 0.00 43 1017.1
20260509203002 23 319 12.9 20.9 0.00 0.00 0.00 44 1017.3
20260509202502 23 323 14.5 24.1 0.00 0.00 0.00 45 1017.3
20260509202002 23 320 14.5 24.1 0.00 0.00 0.00 44 1017.2
20260509201502 23 323 14.5 22.5 0.00 0.00 0.00 45 1017.2
20260509200503 22 319 16.1 20.9 0.00 0.00 0.00 45 1017.3
20260509200002 22 317 16.1 27.4 0.00 0.00 0.00 45 1017.2
20260509195502 23 321 16.1 25.7 0.00 0.00 0.00 44 1017.4
20260509195002 22 319 16.1 27.4 0.00 0.00 0.00 46 1017.4
20260509194003 22 320 17.7 24.1 0.00 0.00 0.00 46 1017.4
20260509193503 22 322 17.7 25.7 0.00 0.00 0.00 46 1017.5
20260509193003 22 318 17.7 25.7 0.00 0.00 0.00 46 1017.6
20260509192002 22 316 16.1 24.1 0.00 0.00 0.00 46 1017.6
20260509191502 22 318 16.1 25.7 0.00 0.00 0.00 46 1017.6
20260509191002 22 320 16.1 22.5 0.00 0.00 0.00 46 1017.7
20260509190502 22 324 14.5 25.7 0.00 0.00 0.00 45 1017.7
20260509190002 22 325 12.9 24.1 0.00 0.00 0.00 45 1017.7
20260509185502 22 323 11.3 19.3 0.00 0.00 0.00 46 1017.7
20260509185004 22 329 11.3 22.5 0.00 0.00 0.00 46 1017.8
20260509184502 22 325 11.3 17.7 0.00 0.00 0.00 45 1017.9
20260509184002 22 320 9.7 20.9 0.00 0.00 0.00 45 1018.0
20260509183502 22 325 9.7 16.1 0.00 0.00 0.00 45 1018.0
20260509182502 21 324 9.7 16.1 0.00 0.00 0.00 46 1018.2
20260509182002 21 323 11.3 19.3 0.00 0.00 0.00 44 1018.2
20260509181503 21 318 12.9 20.9 0.00 0.00 0.00 45 1018.3
20260509181002 21 322 11.3 19.3 0.00 0.00 0.00 45 1018.0
20260509180503 21 319 11.3 19.3 0.00 0.00 0.00 45 1018.1
20260509180003 21 323 11.3 17.7 0.00 0.00 0.00 45 1018.1
20260509175503 20 322 12.9 19.3 0.00 0.00 0.00 44 1018.1
20260509175002 20 322 12.9 22.5 0.00 0.00 0.00 46 1018.1
20260509174503 20 323 11.3 20.9 0.00 0.00 0.00 45 1018.1
20260509173502 20 316 14.5 20.9 0.00 0.00 0.00 47 1018.1
20260509173002 20 320 12.9 22.5 0.00 0.00 0.00 47 1018.1
20260509172503 20 317 11.3 19.3 0.00 0.00 0.00 47 1018.1
20260509172002 20 321 11.3 22.5 0.00 0.00 0.00 47 1018.1
20260509171002 20 319 11.3 20.9 0.00 0.00 0.00 48 1018.0
20260509170502 19 316 9.7 19.3 0.00 0.00 0.00 47 1018.0
20260509170003 19 319 11.3 16.1 0.00 0.00 0.00 47 1018.0
20260509165502 19 320 12.9 19.3 0.00 0.00 0.00 47 1018.1
20260509165002 19 314 12.9 17.7 0.00 0.00 0.00 47 1018.2
20260509164503 19 319 12.9 24.1 0.00 0.00 0.00 47 1018.2
20260509164002 19 320 9.7 19.3 0.00 0.00 0.00 47 1018.1
20260509163502 18 323 8.0 17.7 0.00 0.00 0.00 48 1018.2
20260509163003 18 319 8.0 16.1 0.00 0.00 0.00 47 1018.2
20260509162502 18 321 8.0 12.9 0.00 0.00 0.00 46 1018.3
20260509162002 18 327 6.4 14.5 0.00 0.00 0.00 47 1018.2
20260509161502 18 329 6.4 14.5 0.00 0.00 0.00 47 1018.2
20260509161004 18 319 8.0 12.9 0.00 0.00 0.00 48 1018.2
20260509160502 18 315 6.4 14.5 0.00 0.00 0.00 48 1018.2
20260509160003 18 311 8.0 14.5 0.00 0.00 0.00 48 1018.2
20260509155502 18 319 8.0 9.7 0.00 0.00 0.00 49 1018.2
20260509155003 17 321 9.7 16.1 0.00 0.00 0.00 50 1018.2
20260509154503 17 315 9.7 12.9 0.00 0.00 0.00 51 1018.2
20260509154002 17 322 11.3 19.3 0.00 0.00 0.00 50 1018.2
20260509153503 17 320 11.3 17.7 0.00 0.00 0.00 51 1018.3
20260509152502 17 321 8.0 14.5 0.00 0.00 0.00 51 1018.3
20260509151504 16 322 4.8 12.9 0.00 0.00 0.00 55 1018.2
20260509151003 16 322 3.2 8.0 0.00 0.00 0.00 57 1018.2
20260509150502 16 316 1.6 6.4 0.00 0.00 0.00 58 1018.2
20260509150003 15 306 0.0 4.8 0.00 0.00 0.00 59 1018.2
20260509145003 15 299 0.0 1.6 0.00 0.00 0.00 58 1018.2
20260509144503 15 0 0.0 0.0 0.00 0.00 0.00 58 1018.2
20260509144002 15 0 0.0 0.0 0.00 0.00 0.00 58 1018.3
20260509143503 15 0 0.0 0.0 0.00 0.00 0.00 57 1018.3
20260509143003 15 0 0.0 0.0 0.00 0.00 0.00 56 1018.4
20260509142502 15 0 0.0 0.0 0.00 0.00 0.00 55 1018.4
20260509142004 15 0 0.0 0.0 0.00 0.00 0.00 56 1018.4
20260509141503 15 0 0.0 0.0 0.00 0.00 0.00 57 1018.3
20260509141002 14 0 0.0 0.0 0.00 0.00 0.00 58 1018.3
20260509140502 13 0 0.0 0.0 0.00 0.00 0.00 59 1018.2
20260509140002 13 0 0.0 0.0 0.00 0.00 0.00 60 1018.3
20260509135502 13 0 0.0 0.0 0.00 0.00 0.00 61 1018.2
20260509135003 13 0 0.0 0.0 0.00 0.00 0.00 61 1018.2
20260509134502 12 0 0.0 0.0 0.00 0.00 0.00 62 1018.3
20260509134002 12 0 0.0 0.0 0.00 0.00 0.00 64 1018.3
20260509133503 11 0 0.0 0.0 0.00 0.00 0.00 65 1018.3
20260509132502 11 0 0.0 0.0 0.00 0.00 0.00 65 1018.4
20260509132003 11 0 0.0 0.0 0.00 0.00 0.00 65 1018.3
20260509131503 11 0 0.0 0.0 0.00 0.00 0.00 64 1018.3
20260509131003 11 0 0.0 0.0 0.00 0.00 0.00 64 1018.3
20260509130503 11 0 0.0 0.0 0.00 0.00 0.00 65 1018.3
20260509125503 11 0 0.0 0.0 0.00 0.00 0.00 64 1018.3
20260509125003 11 0 0.0 0.0 0.00 0.00 0.00 63 1018.2
20260509124502 11 0 0.0 0.0 0.00 0.00 0.00 62 1018.1
20260509124003 11 0 0.0 0.0 0.00 0.00 0.00 62 1018.1
20260509123503 11 0 0.0 0.0 0.00 0.00 0.00 61 1018.0
20260509123002 12 299 1.6 3.2 0.00 0.00 0.00 61 1018.1
20260509122503 11 298 0.0 3.2 0.00 0.00 0.00 61 1018.0
20260509122003 12 292 0.0 3.2 0.00 0.00 0.00 59 1018.0
20260509121503 12 0 0.0 0.0 0.00 0.00 0.00 59 1018.0
20260509121003 12 0 1.6 0.0 0.00 0.00 0.00 60 1017.9
20260509120003 12 289 0.0 3.2 0.00 0.00 0.00 58 1017.8
20260509115504 12 289 0.0 1.6 0.00 0.00 0.00 58 1017.9
20260509115003 12 0 0.0 0.0 0.00 0.00 0.00 57 1017.8
20260509114503 12 0 0.0 0.0 0.00 0.00 0.00 57 1017.9
20260509114003 13 289 0.0 3.2 0.00 0.00 0.00 56 1017.9
20260509113503 13 292 0.0 1.6 0.00 0.00 0.00 57 1017.9
20260509113003 12 291 0.0 3.2 0.00 0.00 0.00 57 1017.9
20260509112503 12 289 0.0 1.6 0.00 0.00 0.00 56 1017.8
20260509112003 13 290 1.6 3.2 0.00 0.00 0.00 55 1017.9
20260509111002 13 278 0.0 3.2 0.00 0.00 0.00 54 1018.0
20260509110503 13 274 1.6 3.2 0.00 0.00 0.00 55 1018.1
20260509110003 13 268 1.6 3.2 0.00 0.00 0.00 54 1018.0
20260509105003 13 262 1.6 3.2 0.00 0.00 0.00 55 1018.1
20260509104502 12 249 1.6 4.8 0.00 0.00 0.00 55 1018.2
20260509103503 12 253 0.0 3.2 0.00 0.00 0.00 54 1018.2
20260509103003 13 0 0.0 0.0 0.00 0.00 0.00 54 1018.1
20260509102503 14 0 0.0 0.0 0.00 0.00 0.00 51 1018.1
20260509101502 15 233 3.2 6.4 0.00 0.00 0.00 50 1018.1
20260509101003 15 234 1.6 11.3 0.00 0.00 0.00 49 1018.2
20260509100502 15 228 1.6 4.8 0.00 0.00 0.00 48 1018.2
20260509095503 15 97 0.0 4.8 0.00 0.00 0.00 46 1018.2
20260509095003 15 82 0.0 3.2 0.00 0.00 0.00 47 1018.2
20260509094003 15 0 0.0 0.0 0.00 0.00 0.00 46 1018.4
20260509093503 15 0 0.0 0.0 0.00 0.00 0.00 45 1018.3
20260509093003 15 0 0.0 0.0 0.00 0.00 0.00 45 1018.3
20260509092503 15 0 0.0 0.0 0.00 0.00 0.00 43 1018.3
20260509092002 15 57 0.0 1.6 0.00 0.00 0.00 43 1018.3
20260509091503 15 0 0.0 0.0 0.00 0.00 0.00 43 1018.4
20260509091002 15 66 0.0 3.2 0.00 0.00 0.00 42 1018.4
20260509090003 16 78 0.0 3.2 0.00 0.00 0.00 42 1018.4
20260509085503 15 0 0.0 0.0 0.00 0.00 0.00 41 1018.4
20260509085003 15 0 0.0 0.0 0.00 0.00 0.00 41 1018.4
20260509084503 15 0 0.0 0.0 0.00 0.00 0.00 42 1018.4
20260509084002 15 4 0.0 3.2 0.00 0.00 0.00 41 1018.4
20260509083503 15 7 0.0 4.8 0.00 0.00 0.00 41 1018.4
20260509083002 15 20 0.0 1.6 0.00 0.00 0.00 43 1018.4
20260509082504 15 15 1.6 3.2 0.00 0.00 0.00 44 1018.5
20260509082003 15 5 1.6 3.2 0.00 0.00 0.00 44 1018.5
20260509081003 16 321 0.0 1.6 0.00 0.00 0.00 40 1018.5
20260509080004 15 0 0.0 0.0 0.00 0.00 0.00 43 1018.7
20260509075503 15 0 1.6 0.0 0.00 0.00 0.00 42 1018.7
20260509074502 16 226 3.2 6.4 0.00 0.00 0.00 42 1018.8
20260509074003 16 227 4.8 6.4 0.00 0.00 0.00 42 1018.8
20260509073503 16 291 3.2 6.4 0.00 0.00 0.00 41 1018.8
20260509073003 16 247 3.2 8.0 0.00 0.00 0.00 40 1018.9
20260509071504 16 244 3.2 4.8 0.00 0.00 0.00 43 1018.9
20260509071003 16 244 3.2 4.8 0.00 0.00 0.00 44 1018.9
20260509070503 16 256 3.2 4.8 0.00 0.00 0.00 44 1018.9
20260509070004 15 249 1.6 4.8 0.00 0.00 0.00 42 1018.9
20260509065003 16 0 1.6 0.0 0.00 0.00 0.00 46 1019.1
20260509064503 16 0 0.0 0.0 0.00 0.00 0.00 44 1019.0
20260509064003 16 223 1.6 4.8 0.00 0.00 0.00 44 1018.9
20260509063503 16 262 3.2 3.2 0.00 0.00 0.00 43 1019.0
20260509063003 16 262 4.8 3.2 0.00 0.00 0.00 42 1018.9
20260509062503 16 263 4.8 6.4 0.00 0.00 0.00 44 1018.9
20260509062003 16 264 4.8 9.7 0.00 0.00 0.00 45 1019.0
20260509061503 16 266 4.8 6.4 0.00 0.00 0.00 47 1019.1
20260509061003 16 265 3.2 6.4 0.00 0.00 0.00 47 1019.2
20260509060503 16 252 3.2 9.7 0.00 0.00 0.00 47 1019.1
20260509060005 16 249 4.8 4.8 0.00 0.00 0.00 47 1019.0
20260509055503 17 264 4.8 4.8 0.00 0.00 0.00 47 1019.1
20260509055004 17 265 3.2 9.7 0.00 0.00 0.00 47 1019.0
20260509054503 17 273 1.6 6.4 0.00 0.00 0.00 46 1019.1
20260509053503 17 284 0.0 1.6 0.00 0.00 0.00 45 1019.2
20260509053003 17 0 3.2 0.0 0.00 0.00 0.00 43 1019.2
20260509052003 17 280 6.4 6.4 0.00 0.00 0.00 42 1019.1
20260509051503 17 277 6.4 9.7 0.00 0.00 0.00 43 1019.2
20260509050003 17 277 9.7 9.7 0.00 0.00 0.00 44 1019.1
20260509045503 17 280 11.3 11.3 0.00 0.00 0.00 44 1019.1
20260509045003 17 270 9.7 16.1 0.00 0.00 0.00 44 1019.0
20260509043503 17 279 9.7 12.9 0.00 0.00 0.00 48 1019.0
20260509043003 18 276 11.3 11.3 0.00 0.00 0.00 49 1019.0
20260509042503 18 267 9.7 17.7 0.00 0.00 0.00 49 1018.9
20260509042003 18 274 8.0 14.5 0.00 0.00 0.00 49 1018.9